Weather History for Crystal River, FL

Change the Weather History Date:

Friday, January 18, 2013

  Actual Average (KBKV) Record (KBKV)
Temperature  
Mean Temperature 9 °C -  
Max Temperature 17 °C 19 °C 27 °C (2001)
Min Temperature 2 °C 5 °C -7 °C (1997)
Degree Days  
Heating Degree Days 16    
Moisture  
Dew Point 5 °C    
Average Humidity 71    
Maximum Humidity 100    
Minimum Humidity 55    
Precipitation  
Precipitation 0.00 mm - - ()
Sea Level Pressure  
Sea Level Pressure 1026 hPa    
Wind  
Wind Speed 11 km/h (NNE)    
Max Wind Speed 26 km/h    
Max Gust Speed 39 km/h    
Visibility 16 kilometers    
Events      
Averages and records for this station are not official NWS values.
T = Trace of Precipitation, MM = Missing Value Source: NWS Daily Summary

Daily Weather History Graph

Daily Weather History Graph

Search for Another Location

Airport:

Trip Planner

Search our weather history database for the weather conditions in past years. The results will help you decide how hot, cold, wet, or windy it might be!

Date:

Astronomy

Jan. 18, 2013 Rise Set
Actual Time 7:24 AM EST 5:57 PM EST
Civil Twilight 6:58 AM EST 6:23 PM EST
Nautical Twilight 6:29 AM EST 6:52 PM EST
Astronomical Twilight 6:01 AM EST 7:20 PM EST
Moon 11:41 AM EST (1/18) 12:09 AM EST (1/18)
Length of Visible Light 11h 24m
Length of Day
10h 33m
Waxing Crescent, 47% of the Moon is Illuminated
Jan 18
Waxing Crescent
Jan 18
First Quarter
Jan 26
Full
Feb 3
Last Quarter
Feb 10
New

Hourly Weather History & Observations

Time (EST) Temp. Windchill Dew Point Humidity Pressure Visibility Wind Dir Wind Speed Gust Speed Precip Events Conditions
12:15 AM 6.0 °C 2.1 °C 0.0 °C 66% 1022.6 hPa 16.1 km NNW 22.2 km/h / 6.2 m/s 29.6 km/h / 8.2 m/s N/A   Clear
12:35 AM 6.0 °C 4.0 °C 0.0 °C 66% 1022.6 hPa 16.1 km NNW 9.3 km/h / 2.6 m/s - N/A   Clear
12:55 AM 5.0 °C 3.9 °C 1.0 °C 76% 1022.9 hPa 16.1 km NNW 5.6 km/h / 1.5 m/s - N/A   Clear
1:15 AM 5.0 °C 2.8 °C 1.0 °C 76% 1022.9 hPa 16.1 km NNW 9.3 km/h / 2.6 m/s - N/A   Clear
1:35 AM 5.0 °C 3.9 °C 1.0 °C 76% 1022.9 hPa 16.1 km NNW 5.6 km/h / 1.5 m/s - N/A   Clear
1:55 AM 5.0 °C 3.9 °C 1.0 °C 76% 1023.2 hPa 16.1 km NNW 5.6 km/h / 1.5 m/s - N/A   Clear
2:15 AM 5.0 °C 3.9 °C 1.0 °C 76% 1023.2 hPa 16.1 km NW 5.6 km/h / 1.5 m/s - N/A   Clear
2:35 AM 5.0 °C - 1.0 °C 76% 1023.6 hPa 16.1 km Calm Calm - N/A   Clear
2:55 AM 5.0 °C 3.3 °C 1.0 °C 76% 1023.2 hPa 16.1 km NW 7.4 km/h / 2.1 m/s - N/A   Clear
3:15 AM 5.0 °C 3.3 °C 1.0 °C 76% 1023.6 hPa 16.1 km NNW 7.4 km/h / 2.1 m/s - N/A   Clear
3:35 AM 4.0 °C 2.8 °C 1.0 °C 81% 1023.9 hPa 16.1 km NNW 5.6 km/h / 1.5 m/s - N/A   Clear
3:55 AM 4.0 °C - 1.0 °C 81% 1023.9 hPa 16.1 km Calm Calm - N/A   Clear
4:15 AM 4.0 °C 2.8 °C 1.0 °C 81% 1023.9 hPa 16.1 km NNW 5.6 km/h / 1.5 m/s - N/A   Mostly Cloudy
4:35 AM 4.0 °C 2.8 °C 1.0 °C 81% 1023.9 hPa 16.1 km NNW 5.6 km/h / 1.5 m/s - N/A   Overcast
4:55 AM 4.0 °C - 1.0 °C 81% 1023.9 hPa 16.1 km Calm Calm - N/A   Mostly Cloudy
5:15 AM 4.0 °C - 1.0 °C 81% 1024.3 hPa 16.1 km Calm Calm - N/A   Scattered Clouds
5:55 AM 2.0 °C - 1.0 °C 93% 1024.6 hPa 16.1 km Calm Calm - N/A   Clear
6:15 AM 2.0 °C - 1.0 °C 93% 1024.9 hPa 16.1 km Calm Calm - N/A   Clear
6:35 AM 2.0 °C - 1.0 °C 93% 1025.3 hPa 16.1 km Calm Calm - N/A   Mostly Cloudy
6:55 AM 2.0 °C - 2.0 °C 100% 1025.6 hPa 16.1 km Calm Calm - N/A   Overcast
7:15 AM 3.0 °C - 2.0 °C 93% 1025.6 hPa 16.1 km Calm Calm - N/A   Overcast
7:35 AM 3.0 °C - 2.0 °C 93% 1026.0 hPa 16.1 km Calm Calm - N/A   Overcast
7:55 AM 4.0 °C - 2.0 °C 87% 1026.3 hPa 16.1 km Calm Calm - N/A   Overcast
8:15 AM 5.0 °C - 2.0 °C 81% 1026.3 hPa 16.1 km Calm Calm - N/A   Overcast
8:35 AM 5.0 °C 3.3 °C 3.0 °C 87% 1026.3 hPa 16.1 km North 7.4 km/h / 2.1 m/s - N/A   Overcast
8:55 AM 6.0 °C 5.0 °C 3.0 °C 81% 1026.6 hPa 16.1 km NNE 5.6 km/h / 1.5 m/s - N/A   Overcast
9:15 AM 7.0 °C 5.2 °C 3.0 °C 76% 1026.6 hPa 16.1 km NE 9.3 km/h / 2.6 m/s - N/A   Overcast
9:35 AM 8.0 °C 6.8 °C 4.0 °C 76% 1027.0 hPa 16.1 km North 7.4 km/h / 2.1 m/s - N/A   Overcast
9:55 AM 9.0 °C - 5.0 °C 76% 1027.0 hPa 16.1 km NNE 11.1 km/h / 3.1 m/s - N/A   Mostly Cloudy
10:15 AM 11.0 °C - 5.0 °C 67% 1027.0 hPa 16.1 km NNE 18.5 km/h / 5.1 m/s - N/A   Clear
10:35 AM 11.0 °C - 6.0 °C 71% 1027.3 hPa 16.1 km NNE 16.7 km/h / 4.6 m/s 25.9 km/h / 7.2 m/s N/A   Mostly Cloudy
10:55 AM 12.0 °C - 6.0 °C 67% 1027.0 hPa 16.1 km NE 16.7 km/h / 4.6 m/s - N/A   Scattered Clouds
11:15 AM 13.0 °C - 7.0 °C 67% 1026.6 hPa 16.1 km ENE 20.4 km/h / 5.7 m/s 35.2 km/h / 9.8 m/s N/A   Scattered Clouds
11:35 AM 15.0 °C - 7.0 °C 59% 1026.3 hPa 16.1 km NE 16.7 km/h / 4.6 m/s 37.0 km/h / 10.3 m/s N/A   Scattered Clouds
11:55 AM 15.0 °C - 7.0 °C 59% 1026.0 hPa 16.1 km ENE 20.4 km/h / 5.7 m/s 35.2 km/h / 9.8 m/s N/A   Scattered Clouds
12:15 PM 16.0 °C - 8.0 °C 59% 1026.0 hPa 16.1 km ENE 22.2 km/h / 6.2 m/s 31.5 km/h / 8.7 m/s N/A   Mostly Cloudy
12:35 PM 16.0 °C - 7.0 °C 55% 1025.6 hPa 16.1 km NE 16.7 km/h / 4.6 m/s 29.6 km/h / 8.2 m/s N/A   Overcast
12:55 PM 16.0 °C - 8.0 °C 59% 1025.3 hPa 16.1 km NE 20.4 km/h / 5.7 m/s 31.5 km/h / 8.7 m/s N/A   Overcast
1:15 PM 16.0 °C - 8.0 °C 59% 1025.3 hPa 16.1 km NE 24.1 km/h / 6.7 m/s 35.2 km/h / 9.8 m/s N/A   Overcast
1:35 PM 16.0 °C - 8.0 °C 59% 1024.9 hPa 16.1 km ENE 18.5 km/h / 5.1 m/s 37.0 km/h / 10.3 m/s N/A   Overcast
1:55 PM 16.0 °C - 8.0 °C 59% 1024.9 hPa 16.1 km NE 20.4 km/h / 5.7 m/s 31.5 km/h / 8.7 m/s N/A   Overcast
2:15 PM 17.0 °C - 8.0 °C 55% 1024.9 hPa 16.1 km NE 16.7 km/h / 4.6 m/s - N/A   Overcast
2:35 PM 17.0 °C - 8.0 °C 55% 1024.6 hPa 16.1 km NE 14.8 km/h / 4.1 m/s - N/A   Overcast
2:55 PM 17.0 °C - 8.0 °C 55% 1024.6 hPa 16.1 km NE 24.1 km/h / 6.7 m/s 31.5 km/h / 8.7 m/s N/A   Overcast
3:15 PM 17.0 °C - 8.0 °C 55% 1024.6 hPa 16.1 km NE 16.7 km/h / 4.6 m/s 29.6 km/h / 8.2 m/s N/A   Overcast
3:35 PM 17.0 °C - 8.0 °C 55% 1024.9 hPa 16.1 km ENE 18.5 km/h / 5.1 m/s 33.3 km/h / 9.3 m/s N/A   Overcast
3:55 PM 17.0 °C - 8.0 °C 55% 1024.9 hPa 16.1 km ENE 24.1 km/h / 6.7 m/s 33.3 km/h / 9.3 m/s N/A   Overcast
4:15 PM 17.0 °C - 8.0 °C 55% 1024.9 hPa 16.1 km ENE 25.9 km/h / 7.2 m/s 38.9 km/h / 10.8 m/s N/A   Overcast
4:35 PM 17.0 °C - 8.0 °C 55% 1025.3 hPa 16.1 km NE 20.4 km/h / 5.7 m/s 37.0 km/h / 10.3 m/s N/A   Overcast
4:55 PM 16.0 °C - 8.0 °C 59% 1025.6 hPa 16.1 km NE 25.9 km/h / 7.2 m/s 31.5 km/h / 8.7 m/s N/A   Overcast
5:15 PM 16.0 °C - 8.0 °C 59% 1026.0 hPa 16.1 km ENE 24.1 km/h / 6.7 m/s 37.0 km/h / 10.3 m/s N/A   Overcast
5:35 PM 16.0 °C - 8.0 °C 59% 1026.0 hPa 16.1 km ENE 25.9 km/h / 7.2 m/s 38.9 km/h / 10.8 m/s N/A   Overcast
5:55 PM 15.0 °C - 8.0 °C 63% 1026.3 hPa 16.1 km NE 20.4 km/h / 5.7 m/s 29.6 km/h / 8.2 m/s N/A   Overcast
6:15 PM 15.0 °C - 8.0 °C 63% 1026.6 hPa 16.1 km NE 16.7 km/h / 4.6 m/s 29.6 km/h / 8.2 m/s N/A   Overcast
6:35 PM 14.0 °C - 8.0 °C 67% 1026.6 hPa 16.1 km NE 14.8 km/h / 4.1 m/s 25.9 km/h / 7.2 m/s N/A   Overcast
6:55 PM 13.0 °C - 8.0 °C 72% 1027.0 hPa 16.1 km NE 18.5 km/h / 5.1 m/s 31.5 km/h / 8.7 m/s N/A   Overcast
7:15 PM 13.0 °C - 7.0 °C 67% 1027.0 hPa 16.1 km NE 24.1 km/h / 6.7 m/s 33.3 km/h / 9.3 m/s N/A   Overcast
7:35 PM 13.0 °C - 7.0 °C 67% 1027.3 hPa 16.1 km NE 14.8 km/h / 4.1 m/s 27.8 km/h / 7.7 m/s N/A   Overcast
7:55 PM 12.0 °C - 7.0 °C 72% 1027.7 hPa 16.1 km NE 18.5 km/h / 5.1 m/s 33.3 km/h / 9.3 m/s N/A   Mostly Cloudy
8:15 PM 12.0 °C - 7.0 °C 72% 1027.7 hPa 16.1 km NNE 16.7 km/h / 4.6 m/s 25.9 km/h / 7.2 m/s N/A   Mostly Cloudy
8:35 PM 12.0 °C - 6.0 °C 67% 1027.7 hPa 16.1 km NE 14.8 km/h / 4.1 m/s - N/A   Overcast
8:55 PM 12.0 °C - 6.0 °C 67% 1027.7 hPa 16.1 km NE 11.1 km/h / 3.1 m/s - N/A   Overcast
9:15 PM 11.0 °C - 6.0 °C 71% 1027.7 hPa 16.1 km NE 18.5 km/h / 5.1 m/s 27.8 km/h / 7.7 m/s N/A   Overcast
9:35 PM 11.0 °C - 6.0 °C 71% 1027.7 hPa 16.1 km NNE 13.0 km/h / 3.6 m/s - N/A   Overcast
9:55 PM 11.0 °C - 6.0 °C 71% 1027.7 hPa 16.1 km NNE 16.7 km/h / 4.6 m/s - N/A   Mostly Cloudy
10:15 PM 10.0 °C - 5.0 °C 71% 1027.3 hPa 16.1 km NNE 14.8 km/h / 4.1 m/s - N/A   Mostly Cloudy
10:35 PM 10.0 °C - 5.0 °C 71% 1027.3 hPa 16.1 km NNE 13.0 km/h / 3.6 m/s - N/A   Scattered Clouds
10:55 PM 10.0 °C - 5.0 °C 71% 1027.3 hPa 16.1 km NNE 9.3 km/h / 2.6 m/s - N/A   Mostly Cloudy
11:15 PM 10.0 °C - 5.0 °C 71% 1027.0 hPa 16.1 km NNE 13.0 km/h / 3.6 m/s - N/A   Overcast
11:35 PM 9.0 °C - 5.0 °C 76% 1026.6 hPa 16.1 km NNE 13.0 km/h / 3.6 m/s - N/A   Scattered Clouds
11:55 PM 9.0 °C - 5.0 °C 76% 1026.6 hPa 16.1 km NNE 13.0 km/h / 3.6 m/s - N/A   Clear